| time (UTC) | temp F | wind direction | speed MPH | gust MPH | rain 1hr in | rain 24hr in | rain mn in | humidity % | barometer mb |
| 20260504185011 | 66 | 296 | 13.0 | 21.0 | 0.00 | 0.00 | 0.00 | 30 | 1002.7 |
| 20260504184514 | 66 | 305 | 15.0 | 23.0 | 0.00 | 0.00 | 0.00 | 29 | 1002.7 |
| 20260504184006 | 67 | 306 | 11.0 | 32.0 | 0.00 | 0.00 | 0.00 | 29 | 1002.6 |
| 20260504183508 | 67 | 329 | 16.0 | 32.0 | 0.00 | 0.00 | 0.00 | 29 | 1002.6 |
| 20260504183019 | 66 | 339 | 13.0 | 23.0 | 0.00 | 0.00 | 0.00 | 30 | 1002.5 |
| 20260504182509 | 66 | 11 | 11.0 | 24.0 | 0.00 | 0.00 | 0.00 | 30 | 1002.5 |
| 20260504182011 | 66 | 312 | 13.0 | 28.0 | 0.00 | 0.00 | 0.00 | 30 | 1002.6 |
| 20260504181512 | 66 | 349 | 18.0 | 28.0 | 0.00 | 0.00 | 0.00 | 31 | 1002.5 |
| 20260504181007 | 66 | 302 | 11.0 | 26.0 | 0.00 | 0.00 | 0.00 | 30 | 1002.4 |
| 20260504180511 | 66 | 360 | 11.0 | 27.0 | 0.00 | 0.00 | 0.00 | 30 | 1002.4 |
| 20260504180014 | 67 | 360 | 17.0 | 27.0 | 0.00 | 0.00 | 0.00 | 30 | 1002.2 |
| 20260504175506 | 66 | 302 | 15.0 | 26.0 | 0.00 | 0.00 | 0.00 | 28 | 1002.1 |
| 20260504175014 | 67 | 360 | 11.0 | 23.0 | 0.00 | 0.00 | 0.00 | 31 | 1001.9 |
| 20260504174512 | 66 | 360 | 13.0 | 22.0 | 0.00 | 0.00 | 0.00 | 30 | 1001.9 |
| 20260504174007 | 66 | 312 | 12.0 | 24.0 | 0.00 | 0.00 | 0.00 | 29 | 1001.8 |
| 20260504173025 | 67 | 340 | 15.0 | 27.0 | 0.00 | 0.00 | 0.00 | 29 | 1001.8 |
| 20260504172507 | 66 | 360 | 13.0 | 23.0 | 0.00 | 0.00 | 0.00 | 30 | 1001.6 |
| 20260504172011 | 66 | 360 | 12.0 | 25.0 | 0.00 | 0.00 | 0.00 | 31 | 1001.7 |
| 20260504171523 | 66 | 360 | 13.0 | 25.0 | 0.00 | 0.00 | 0.00 | 32 | 1001.8 |
| 20260504171009 | 66 | 360 | 19.0 | 26.0 | 0.00 | 0.00 | 0.00 | 30 | 1001.6 |
| 20260504170505 | 66 | 11 | 20.0 | 26.0 | 0.00 | 0.00 | 0.00 | 31 | 1001.7 |
| 20260504151013 | 63 | 360 | 20.0 | 26.0 | 0.00 | 0.00 | 0.00 | 44 | 1000.1 |
| 20260504150507 | 63 | 13 | 21.0 | 26.0 | 0.00 | 0.00 | 0.00 | 44 | 1000.1 |
| 20260504141006 | 61 | 309 | 13.0 | 23.0 | 0.00 | 0.00 | 0.00 | 50 | 999.9 |
| 20260504140506 | 61 | 288 | 11.0 | 23.0 | 0.00 | 0.00 | 0.00 | 50 | 999.8 |
| 20260504130503 | 58 | 253 | 16.0 | 22.0 | 0.00 | 0.00 | 0.00 | 49 | 999.1 |
| 20260504110503 | 53 | 215 | 8.0 | 13.0 | 0.00 | 0.00 | 0.00 | 56 | 999.2 |
| 20260504100505 | 53 | 217 | 9.0 | 15.0 | 0.00 | 0.00 | 0.00 | 56 | 999.8 |
| 20260504081512 | 50 | 215 | 10.0 | 14.0 | 0.00 | 0.00 | 0.00 | 58 | 1000.8 |
| 20260504081007 | 50 | 228 | 7.0 | 12.0 | 0.00 | 0.00 | 0.00 | 59 | 1000.9 |
| 20260504080510 | 50 | 229 | 8.0 | 11.0 | 0.00 | 0.00 | 0.00 | 58 | 1000.9 |
| 20260504050507 | 53 | 215 | 5.0 | 9.0 | 0.00 | 0.00 | 0.00 | 50 | 1003.6 |
| 20260504050004 | 53 | 360 | 6.0 | 8.0 | 0.00 | 0.00 | 0.00 | 50 | 1003.7 |
| 20260504045504 | 53 | 222 | 5.0 | 8.0 | 0.00 | 0.00 | 0.00 | 50 | 1003.7 |
| 20260504045012 | 53 | 216 | 4.0 | 8.0 | 0.00 | 0.00 | 0.00 | 50 | 1003.8 |
| 20260504044510 | 53 | 206 | 5.0 | 7.0 | 0.00 | 0.00 | 0.00 | 50 | 1003.8 |
| 20260504044006 | 54 | 204 | 4.0 | 7.0 | 0.00 | 0.00 | 0.00 | 49 | 1003.8 |
| 20260504043508 | 53 | 231 | 4.0 | 7.0 | 0.00 | 0.00 | 0.00 | 49 | 1003.9 |
| 20260504043009 | 54 | 204 | 3.0 | 8.0 | 0.00 | 0.00 | 0.00 | 50 | 1003.9 |
| 20260504042507 | 53 | 214 | 5.0 | 8.0 | 0.00 | 0.00 | 0.00 | 50 | 1004.0 |
| 20260504042009 | 54 | 205 | 4.0 | 7.0 | 0.00 | 0.00 | 0.00 | 50 | 1004.2 |
| 20260504041510 | 54 | 211 | 4.0 | 7.0 | 0.00 | 0.00 | 0.00 | 49 | 1004.3 |
| 20260504041006 | 53 | 200 | 4.0 | 6.0 | 0.00 | 0.00 | 0.00 | 50 | 1004.4 |
| 20260504040510 | 53 | 217 | 3.0 | 5.0 | 0.00 | 0.00 | 0.00 | 49 | 1004.5 |
| 20260504040010 | 54 | 223 | 3.0 | 5.0 | 0.00 | 0.00 | 0.00 | 49 | 1004.5 |
| 20260504035511 | 54 | 206 | 3.0 | 5.0 | 0.00 | 0.00 | 0.00 | 49 | 1004.6 |
| 20260504035008 | 54 | 186 | 2.0 | 4.0 | 0.00 | 0.00 | 0.00 | 47 | 1004.7 |
| 20260504034512 | 54 | 204 | 2.0 | 4.0 | 0.00 | 0.00 | 0.00 | 47 | 1004.8 |
| 20260504034006 | 54 | 213 | 2.0 | 4.0 | 0.00 | 0.00 | 0.00 | 47 | 1004.9 |
| 20260504033510 | 54 | 202 | 2.0 | 5.0 | 0.00 | 0.00 | 0.00 | 47 | 1005.0 |
| 20260504033013 | 55 | 202 | 3.0 | 5.0 | 0.00 | 0.00 | 0.00 | 47 | 1005.1 |
| 20260504032508 | 55 | 360 | 3.0 | 5.0 | 0.00 | 0.00 | 0.00 | 46 | 1005.2 |
| 20260504032012 | 55 | 220 | 0.0 | 4.0 | 0.00 | 0.00 | 0.00 | 46 | 1005.2 |
| 20260504031516 | 55 | 230 | 0.0 | 2.0 | 0.00 | 0.00 | 0.00 | 46 | 1005.3 |
| 20260504031008 | 55 | 237 | 1.0 | 3.0 | 0.00 | 0.00 | 0.00 | 46 | 1005.4 |
| 20260504030506 | 56 | 244 | 1.0 | 4.0 | 0.00 | 0.00 | 0.00 | 45 | 1005.4 |
| 20260504030013 | 56 | 219 | 2.0 | 4.0 | 0.00 | 0.00 | 0.00 | 45 | 1005.5 |
| 20260504025507 | 56 | 239 | 1.0 | 5.0 | 0.00 | 0.00 | 0.00 | 45 | 1005.5 |
| 20260504025003 | 57 | 248 | 3.0 | 6.0 | 0.00 | 0.00 | 0.00 | 43 | 1005.6 |
| 20260504024520 | 58 | 232 | 4.0 | 7.0 | 0.00 | 0.00 | 0.00 | 43 | 1005.5 |
| 20260504024012 | 57 | 241 | 3.0 | 7.0 | 0.00 | 0.00 | 0.00 | 44 | 1005.4 |
| 20260504023503 | 58 | 219 | 4.0 | 5.0 | 0.00 | 0.00 | 0.00 | 42 | 1005.5 |
| 20260504023020 | 58 | 217 | 4.0 | 6.0 | 0.00 | 0.00 | 0.00 | 41 | 1005.5 |
| 20260504022511 | 59 | 247 | 2.0 | 8.0 | 0.00 | 0.00 | 0.00 | 41 | 1005.5 |
| 20260504022004 | 59 | 215 | 5.0 | 9.0 | 0.00 | 0.00 | 0.00 | 41 | 1005.4 |
| 20260504021525 | 59 | 218 | 5.0 | 9.0 | 0.00 | 0.00 | 0.00 | 40 | 1005.5 |
| 20260504021009 | 59 | 254 | 5.0 | 8.0 | 0.00 | 0.00 | 0.00 | 39 | 1005.6 |
| 20260504020502 | 59 | 238 | 4.0 | 7.0 | 0.00 | 0.00 | 0.00 | 40 | 1005.6 |
| 20260504020021 | 60 | 269 | 2.0 | 8.0 | 0.00 | 0.00 | 0.00 | 38 | 1005.6 |
| 20260504015508 | 61 | 243 | 4.0 | 8.0 | 0.00 | 0.00 | 0.00 | 37 | 1005.6 |
| 20260504015003 | 61 | 259 | 5.0 | 8.0 | 0.00 | 0.00 | 0.00 | 36 | 1005.6 |
| 20260504014521 | 62 | 245 | 4.0 | 9.0 | 0.00 | 0.00 | 0.00 | 36 | 1005.7 |
| 20260504014006 | 62 | 230 | 4.0 | 9.0 | 0.00 | 0.00 | 0.00 | 36 | 1005.7 |
| 20260504013503 | 61 | 241 | 4.0 | 7.0 | 0.00 | 0.00 | 0.00 | 36 | 1005.7 |
| 20260504013029 | 62 | 261 | 4.0 | 8.0 | 0.00 | 0.00 | 0.00 | 36 | 1005.7 |
| 20260504012507 | 62 | 261 | 4.0 | 8.0 | 0.00 | 0.00 | 0.00 | 36 | 1005.8 |
| 20260504012007 | 63 | 268 | 6.0 | 9.0 | 0.00 | 0.00 | 0.00 | 36 | 1005.8 |
| 20260504011522 | 63 | 269 | 7.0 | 9.0 | 0.00 | 0.00 | 0.00 | 35 | 1005.9 |
| 20260504011011 | 64 | 259 | 8.0 | 10.0 | 0.00 | 0.00 | 0.00 | 34 | 1005.9 |
| 20260504010505 | 65 | 260 | 7.0 | 13.0 | 0.00 | 0.00 | 0.00 | 33 | 1005.9 |
| 20260504010023 | 66 | 275 | 9.0 | 13.0 | 0.00 | 0.00 | 0.00 | 32 | 1005.9 |
| 20260504005509 | 66 | 360 | 6.0 | 10.0 | 0.00 | 0.00 | 0.00 | 31 | 1005.9 |
| 20260504005005 | 67 | 257 | 7.0 | 13.0 | 0.00 | 0.00 | 0.00 | 31 | 1006.0 |
| 20260504004522 | 67 | 360 | 9.0 | 15.0 | 0.00 | 0.00 | 0.00 | 29 | 1006.0 |
| 20260504004010 | 68 | 253 | 10.0 | 16.0 | 0.00 | 0.00 | 0.00 | 29 | 1005.9 |
| 20260504003507 | 68 | 284 | 12.0 | 16.0 | 0.00 | 0.00 | 0.00 | 28 | 1005.9 |
| 20260504003025 | 68 | 280 | 10.0 | 16.0 | 0.00 | 0.00 | 0.00 | 28 | 1006.0 |
| 20260504002509 | 69 | 260 | 11.0 | 16.0 | 0.00 | 0.00 | 0.00 | 28 | 1006.0 |
| 20260504002006 | 69 | 265 | 10.0 | 15.0 | 0.00 | 0.00 | 0.00 | 28 | 1006.1 |
| 20260504001524 | 69 | 360 | 5.0 | 14.0 | 0.00 | 0.00 | 0.00 | 26 | 1006.1 |
| 20260504001002 | 70 | 336 | 5.0 | 14.0 | 0.00 | 0.00 | 0.00 | 26 | 1006.1 |
| 20260504000506 | 70 | 360 | 6.0 | 15.0 | 0.00 | 0.00 | 0.00 | 27 | 1006.2 |
| 20260504000027 | 70 | 319 | 6.0 | 15.0 | 0.00 | 0.00 | 0.00 | 26 | 1006.2 |
| 20260503235503 | 70 | 312 | 4.0 | 18.0 | 0.00 | 0.00 | 0.00 | 26 | 1006.2 |
| 20260503235007 | 70 | 288 | 8.0 | 18.0 | 0.00 | 0.00 | 0.00 | 25 | 1006.3 |
| 20260503234528 | 70 | 269 | 13.0 | 16.0 | 0.00 | 0.00 | 0.00 | 24 | 1006.3 |
| 20260503234008 | 70 | 260 | 11.0 | 19.0 | 0.00 | 0.00 | 0.00 | 24 | 1006.3 |
| 20260503233507 | 70 | 360 | 8.0 | 19.0 | 0.00 | 0.00 | 0.00 | 25 | 1006.4 |
| 20260503233026 | 70 | 269 | 11.0 | 17.0 | 0.00 | 0.00 | 0.00 | 25 | 1006.4 |
| 20260503232503 | 71 | 329 | 10.0 | 16.0 | 0.00 | 0.00 | 0.00 | 26 | 1006.4 |
| 20260503232002 | 71 | 236 | 9.0 | 15.0 | 0.00 | 0.00 | 0.00 | 26 | 1006.5 |
| 20260503231508 | 71 | 252 | 11.0 | 18.0 | 0.00 | 0.00 | 0.00 | 28 | 1006.4 |
| 20260503231006 | 71 | 284 | 7.0 | 19.0 | 0.00 | 0.00 | 0.00 | 27 | 1006.5 |
| 20260503230503 | 71 | 360 | 12.0 | 19.0 | 0.00 | 0.00 | 0.00 | 28 | 1006.5 |
| 20260503230009 | 72 | 265 | 6.0 | 15.0 | 0.00 | 0.00 | 0.00 | 26 | 1006.6 |
| 20260503225503 | 71 | 315 | 6.0 | 15.0 | 0.00 | 0.00 | 0.00 | 27 | 1006.6 |
| 20260503225003 | 71 | 284 | 5.0 | 15.0 | 0.00 | 0.00 | 0.00 | 26 | 1006.6 |
| 20260503224510 | 71 | 360 | 8.0 | 15.0 | 0.00 | 0.00 | 0.00 | 26 | 1006.7 |
| 20260503224005 | 72 | 331 | 7.0 | 15.0 | 0.00 | 0.00 | 0.00 | 25 | 1006.7 |
| 20260503223501 | 72 | 301 | 9.0 | 15.0 | 0.00 | 0.00 | 0.00 | 25 | 1006.6 |
| 20260503223011 | 71 | 298 | 8.0 | 17.0 | 0.00 | 0.00 | 0.00 | 25 | 1006.7 |
| 20260503222508 | 72 | 360 | 7.0 | 17.0 | 0.00 | 0.00 | 0.00 | 25 | 1006.8 |
| 20260503222003 | 72 | 285 | 8.0 | 15.0 | 0.00 | 0.00 | 0.00 | 26 | 1006.8 |
| 20260503221510 | 71 | 285 | 8.0 | 20.0 | 0.00 | 0.00 | 0.00 | 24 | 1006.9 |
| 20260503221006 | 71 | 277 | 12.0 | 20.0 | 0.00 | 0.00 | 0.00 | 23 | 1006.9 |
| 20260503220503 | 72 | 311 | 6.0 | 15.0 | 0.00 | 0.00 | 0.00 | 25 | 1006.9 |
| 20260503220010 | 72 | 277 | 9.0 | 18.0 | 0.00 | 0.00 | 0.00 | 23 | 1007.0 |
| 20260503215502 | 71 | 302 | 8.0 | 21.0 | 0.00 | 0.00 | 0.00 | 23 | 1007.0 |
| 20260503215002 | 71 | 304 | 13.0 | 24.0 | 0.00 | 0.00 | 0.00 | 22 | 1007.0 |
| 20260503214514 | 72 | 360 | 14.0 | 24.0 | 0.00 | 0.00 | 0.00 | 23 | 1007.1 |
| 20260503214003 | 72 | 279 | 11.0 | 19.0 | 0.00 | 0.00 | 0.00 | 25 | 1007.0 |
| 20260503213502 | 72 | 322 | 11.0 | 16.0 | 0.00 | 0.00 | 0.00 | 24 | 1007.0 |
| 20260503213026 | 72 | 331 | 7.0 | 17.0 | 0.00 | 0.00 | 0.00 | 23 | 1007.1 |
| 20260503212504 | 72 | 331 | 7.0 | 17.0 | 0.00 | 0.00 | 0.00 | 25 | 1007.2 |
| 20260503212006 | 73 | 292 | 9.0 | 19.0 | 0.00 | 0.00 | 0.00 | 26 | 1007.2 |
| 20260503211518 | 72 | 352 | 11.0 | 19.0 | 0.00 | 0.00 | 0.00 | 25 | 1007.2 |
| 20260503211006 | 72 | 313 | 6.0 | 18.0 | 0.00 | 0.00 | 0.00 | 25 | 1007.3 |
| 20260503210503 | 72 | 311 | 9.0 | 18.0 | 0.00 | 0.00 | 0.00 | 24 | 1007.4 |
| 20260503210012 | 72 | 360 | 9.0 | 17.0 | 0.00 | 0.00 | 0.00 | 24 | 1007.4 |
| 20260503205503 | 72 | 335 | 12.0 | 17.0 | 0.00 | 0.00 | 0.00 | 24 | 1007.4 |
| 20260503205008 | 72 | 360 | 9.0 | 16.0 | 0.00 | 0.00 | 0.00 | 24 | 1007.4 |
| 20260503204518 | 72 | 317 | 10.0 | 16.0 | 0.00 | 0.00 | 0.00 | 26 | 1007.5 |
| 20260503204002 | 72 | 284 | 10.0 | 17.0 | 0.00 | 0.00 | 0.00 | 27 | 1007.5 |
| 20260503203506 | 71 | 325 | 10.0 | 17.0 | 0.00 | 0.00 | 0.00 | 27 | 1007.6 |
| 20260503203015 | 72 | 330 | 6.0 | 23.0 | 0.00 | 0.00 | 0.00 | 29 | 1007.6 |
| 20260503202503 | 72 | 343 | 12.0 | 23.0 | 0.00 | 0.00 | 0.00 | 27 | 1007.7 |
| 20260503202006 | 71 | 263 | 7.0 | 15.0 | 0.00 | 0.00 | 0.00 | 28 | 1007.7 |
| 20260503201526 | 71 | 10 | 9.0 | 17.0 | 0.00 | 0.00 | 0.00 | 28 | 1007.9 |
| 20260503201002 | 71 | 350 | 7.0 | 18.0 | 0.00 | 0.00 | 0.00 | 28 | 1007.9 |
| 20260503200507 | 71 | 313 | 8.0 | 18.0 | 0.00 | 0.00 | 0.00 | 28 | 1008.0 |
| 20260503200019 | 71 | 290 | 7.0 | 16.0 | 0.00 | 0.00 | 0.00 | 29 | 1008.1 |
| 20260503195503 | 71 | 284 | 9.0 | 16.0 | 0.00 | 0.00 | 0.00 | 27 | 1008.1 |
| 20260503195007 | 71 | 315 | 7.0 | 18.0 | 0.00 | 0.00 | 0.00 | 28 | 1008.2 |
| 20260503194526 | 71 | 263 | 9.0 | 20.0 | 0.00 | 0.00 | 0.00 | 27 | 1008.2 |
| 20260503194004 | 71 | 292 | 13.0 | 20.0 | 0.00 | 0.00 | 0.00 | 27 | 1008.2 |
| 20260503193506 | 71 | 287 | 9.0 | 19.0 | 0.00 | 0.00 | 0.00 | 27 | 1008.3 |
| 20260503193018 | 70 | 318 | 8.0 | 19.0 | 0.00 | 0.00 | 0.00 | 29 | 1008.3 |
| 20260503192503 | 70 | 340 | 12.0 | 24.0 | 0.00 | 0.00 | 0.00 | 28 | 1008.5 |
| 20260503192010 | 70 | 317 | 9.0 | 24.0 | 0.00 | 0.00 | 0.00 | 30 | 1008.5 |
| 20260503191520 | 70 | 360 | 11.0 | 22.0 | 0.00 | 0.00 | 0.00 | 29 | 1008.5 |
| 20260503191003 | 70 | 360 | 14.0 | 27.0 | 0.00 | 0.00 | 0.00 | 28 | 1008.5 |
| 20260503190507 | 69 | 360 | 17.0 | 27.0 | 0.00 | 0.00 | 0.00 | 29 | 1008.6 |
| 20260503190016 | 70 | 350 | 13.0 | 22.0 | 0.00 | 0.00 | 0.00 | 29 | 1008.6 |
| 20260503185506 | 69 | 13 | 9.0 | 27.0 | 0.00 | 0.00 | 0.00 | 29 | 1008.6 |